Location: Civry
(47.2902°N, 4.6156°E)
Time: 06:32:26
(UTC+00:00)

Cosmos 1980 Rocket - Pass Details

Date: 09 April 2020
Orbit: 828 x 850 km, 71.0° (Epoch: 29 May)

Event Time Altitude Azimuth Distance (km) Brightness Sun altitude
Rises 23:21:17 0° 320° (NW) 3,390 6.1 -34.5°
Reaches altitude 10° 23:24:27 10° 302° (WNW) 2,455 5.0 -34.5°
Enters shadow 23:26:11 15° 285° (WNW) 2,095 4.4 -34.6°
